Wind_Speed
86 88 89 91 92 94 95 95 96 98 99 100 102 103 104 105 105 105 105 105 105 105 105 105 105 104 103 103 103 103 104 105 106 108 109 110 111 112 113 115 116 118
84 85 87 88 89 90 91 92 92 93 94 96 97 99 101 102 102 103 103 104 104 105 106 106 105 104 103 102 101 100 100 101 101 102 103 104 105 107 108 110 112 113
82 83 85 86 87 88 88 89 89 89 90 92 93 95 97 98 99 99 100 101 102 103 105 105 105 104 103 102 101 100 99 99 99 98 98 99 100 101 102 104 106 108
80 82 83 84 85 86 86 86 86 87 88 89 90 92 93 94 95 96 97 98 99 101 102 103 103 102 102 101 100 99 98 97 97 96 95 96 96 97 98 99 100 102
79 81 82 83 84 85 85 85 85 85 86 87 88 89 90 90 91 92 93 95 96 98 99 100 100 99 99 98 97 97 96 96 95 94 94 94 94 95 95 96 97 98
79 81 82 83 83 84 84 84 85 85 85 85 86 86 87 87 87 88 90 92 93 94 95 96 96 95 95 94 94 93 93 93 93 92 92 93 93 93 94 94 95 96
79 80 81 82 83 84 84 84 84 84 84 83 84 85 85 85 85 86 87 89 90 91 91 91 91 90 90 90 89 89 89 89 89 89 90 91 91 92 92 93 93 94
79 80 81 82 83 83 84 84 84 84 83 82 82 83 84 84 84 84 85 86 86 86 87 86 86 85 85 85 85 85 85 85 86 86 87 88 89 89 90 91 91 93
78 79 80 82 83 83 84 84 84 83 82 81 81 82 83 83 83 83 83 83 83 83 83 83 82 81 81 80 80 80 81 82 83 83 84 85 86 87 88 88 89 90
78 79 80 82 83 83 83 84 83 83 82 81 80 81 82 83 83 82 82 81 81 81 80 80 79 78 77 77 76 77 77 79 79 80 81 82 83 84 85 85 86 87
79 80 81 82 83 83 84 84 83 82 81 80 80 80 82 82 82 81 80 80 79 79 78 78 77 76 75 74 73 74 74 75 76 77 78 79 80 81 82 83 83 84
79 80 81 83 83 84 84 84 84 83 81 80 79 80 81 82 82 81 79 78 78 77 76 76 75 74 73 72 71 72 72 73 73 75 76 76 77 78 79 80 81 81
80 81 82 83 84 84 85 85 84 83 82 80 80 80 81 82 81 80 78 77 76 75 75 74 73 72 71 70 70 70 70 70 71 72 73 74 75 75 76 77 77 78
80 81 82 84 84 85 85 85 85 84 82 81 80 81 81 82 82 80 77 75 75 74 73 72 71 70 69 69 69 69 69 69 69 70 71 72 72 73 73 74 74 75
80 81 83 84 84 85 86 86 85 84 83 81 80 81 81 82 81 80 76 74 74 73 72 71 70 68 68 68 68 68 67 67 68 69 69 70 70 70 70 71 72 73
81 82 84 84 85 85 86 87 86 85 83 81 81 81 81 81 81 79 76 73 73 73 71 70 69 67 66 67 67 66 66 66 67 68 67 67 67 67 68 69 70 70
82 83 84 85 85 86 87 87 86 85 83 81 81 82 82 82 81 79 76 72 72 72 71 70 68 66 65 66 66 65 64 65 67 67 66 65 64 65 65 66 67 67
82 84 85 85 86 86 87 87 86 85 83 81 81 82 82 82 81 79 76 72 71 71 70 69 67 65 64 65 65 64 63 63 66 67 65 64 63 63 63 64 64 64
83 84 85 86 86 87 87 87 86 84 82 81 81 82 82 82 80 79 76 72 70 70 69 68 66 64 63 64 64 63 62 62 65 65 64 63 62 61 62 62 62 62
84 85 86 86 87 87 87 87 86 84 82 81 82 82 82 81 80 78 76 72 70 69 68 67 65 63 62 63 63 61 61 62 64 64 62 61 61 61 61 60 60 59
85 85 86 87 87 87 87 87 86 84 83 82 82 83 82 81 80 78 76 72 70 68 67 66 64 62 61 62 61 60 59 61 63 63 61 60 60 60 59 59 58 57
85 86 86 87 87 87 87 87 85 84 83 82 82 82 82 81 79 78 76 72 70 67 66 65 64 61 59 60 60 58 58 60 62 62 60 59 59 59 58 57 55 55
86 86 87 87 87 87 87 86 85 84 83 82 82 82 82 80 78 77 76 72 69 67 65 65 64 60 58 59 59 57 57 58 60 60 59 58 58 59 58 56 54 53
87 87 87 87 88 87 87 86 85 84 83 82 82 81 81 79 77 76 75 72 69 67 65 64 63 60 57 56 57 56 55 56 58 59 58 57 58 59 57 55 53 52
87 88 88 88 88 87 87 86 84 84 83 82 81 80 79 78 76 75 75 72 68 66 64 62 62 60 56 55 55 55 53 54 55 56 56 57 58 58 57 54 53 51
88 88 88 88 88 87 86 85 84 83 83 82 80 79 78 77 75 73 73 72 68 65 63 61 60 59 57 54 54 54 52 51 53 54 54 55 58 58 56 54 53 51
Wind_Direction
293 292 292 291 291 291 290 290 289 289 289 288 288 288 288 287 287 287 287 286 286 285 284 283 281 280 279 277 276 275 273 272 271 270 269 268 267 266 265 264 263 263
294 293 293 292 292 292 291 291 291 290 290 290 289 289 288 288 288 288 288 287 287 286 286 285 284 284 283 281 280 278 276 275 273 271 270 268 267 266 265 264 263 262
295 295 294 294 294 294 294 294 293 293 293 292 291 290 289 289 289 288 288 288 287 286 286 286 286 285 285 284 282 281 279 277 276 274 272 270 269 267 266 264 263 262
297 297 297 297 297 297 297 297 297 296 295 294 293 291 290 290 289 289 288 287 287 286 286 286 286 286 285 284 283 282 281 279 278 276 274 273 271 269 268 266 264 263
301 301 301 300 300 300 300 300 300 299 298 296 294 292 291 290 290 289 288 288 287 287 287 287 286 286 285 284 283 282 281 280 279 277 276 274 273 271 269 267 266 264
304 303 303 303 303 303 303 303 302 301 299 298 296 294 293 292 291 290 290 289 288 288 288 287 286 286 285 284 283 282 281 280 279 278 276 275 273 272 270 268 267 265
305 305 304 305 305 305 305 304 303 302 301 300 298 296 295 294 293 292 291 290 290 289 288 288 287 286 285 284 283 282 281 280 278 277 276 274 273 272 270 269 268 266
306 306 306 307 307 307 306 306 305 304 303 302 300 299 297 296 295 294 293 292 291 291 290 289 287 286 285 284 283 282 281 280 279 277 276 274 273 272 271 270 268 267
307 308 308 308 308 308 308 308 307 306 305 304 303 301 300 299 298 297 296 295 294 293 292 290 289 288 287 286 284 283 282 280 279 277 276 275 274 273 271 270 269 268
310 310 310 310 310 310 310 309 309 308 307 306 305 303 302 301 300 299 299 298 297 295 294 293 291 290 289 287 286 284 282 281 279 278 277 275 274 273 272 271 270 269
312 312 312 312 311 311 311 311 310 309 309 308 306 305 304 303 303 302 301 300 299 298 296 295 293 292 291 289 288 285 283 281 280 279 277 276 275 274 273 272 271 270
313 313 313 313 313 313 313 312 312 311 310 309 309 308 307 306 305 304 303 303 301 299 298 296 295 294 293 291 289 287 285 283 281 280 278 277 275 274 274 273 272 271
315 315 315 314 314 314 314 314 313 313 312 312 311 310 309 308 306 306 305 304 302 301 299 298 297 296 295 293 290 288 286 285 283 281 279 278 277 276 275 274 273 272
316 316 316 315 316 316 316 315 315 314 314 314 313 312 311 309 308 307 307 306 304 302 301 299 298 297 296 294 292 290 288 286 284 282 281 279 278 277 277 276 274 273
317 317 317 317 317 317 317 316 316 316 315 315 315 313 312 310 309 308 308 307 305 303 302 301 299 298 297 295 293 291 290 288 286 284 282 281 280 279 278 277 276 274
319 318 318 318 318 318 318 318 317 317 316 316 316 314 312 311 310 309 309 308 307 305 304 302 301 299 298 296 294 293 292 290 288 286 284 283 282 281 280 279 277 276
320 319 319 319 319 319 319 318 318 317 317 317 317 315 313 312 311 310 310 309 308 306 305 303 302 301 299 297 295 294 293 292 290 288 286 285 284 283 281 280 278 277
321 320 320 320 320 320 320 319 318 318 318 318 317 316 314 313 312 311 311 310 308 307 305 304 303 302 300 298 296 296 295 293 292 290 289 288 286 284 283 281 280 279
322 321 321 321 321 321 320 319 319 319 319 319 318 316 315 314 313 312 311 310 309 308 306 305 303 303 301 299 298 297 296 295 293 291 291 290 288 287 285 283 282 281
322 322 321 321 321 321 320 320 319 320 320 320 318 317 316 315 314 313 311 311 310 308 307 305 304 304 302 300 298 298 297 295 293 292 292 291 290 288 286 285 284 283
323 322 322 322 322 322 321 321 320 320 321 320 319 318 317 316 315 313 312 311 310 309 308 306 305 305 303 301 299 299 298 296 294 293 293 292 290 289 287 286 286 285
323 323 322 322 322 322 322 321 321 321 321 320 319 319 317 316 315 313 312 312 311 310 309 307 306 306 304 302 300 300 298 297 295 294 293 292 291 290 288 288 287 287
324 323 323 323 323 323 322 322 322 322 321 321 320 320 318 317 316 314 312 312 312 311 310 308 307 306 305 303 301 301 299 297 296 295 294 294 293 291 290 290 289 288
324 324 324 324 324 323 323 322 322 322 322 321 321 321 319 317 316 314 313 312 312 312 311 309 308 307 306 304 302 301 300 298 296 296 295 295 294 292 292 292 291 290
324 324 324 324 324 324 323 323 323 322 322 322 322 321 320 318 316 315 313 312 313 312 311 310 309 308 307 306 303 301 300 299 297 296 296 296 295 294 294 294 293 291
325 325 325 325 325 324 324 323 323 323 323 323 323 322 320 318 316 315 313 312 313 313 312 311 310 309 308 307 304 302 301 299 297 297 297 296 295 295 296 296 295 293
Height
10150 10143 10137 10129 10123 10116 10109 10102 10094 10087 10080 10072 10065 10058 10051 10044 10038 10033 10028 10022 10017 10012 10007 10003 10001 9999 9997 9995 9993 9992 9990 9987 9984 9981 9979 9979 9979 9978 9977 9976 9976 9976
10139 10132 10125 10117 10110 10103 10096 10089 10081 10074 10067 10058 10051 10043 10036 10029 10023 10017 10012 10006 10000 9994 9989 9984 9981 9978 9976 9974 9972 9970 9968 9966 9963 9961 9959 9958 9957 9957 9956 9955 9955 9955
10128 10120 10112 10105 10097 10090 10082 10075 10067 10060 10053 10044 10036 10029 10022 10015 10009 10003 9997 9991 9985 9979 9972 9967 9963 9960 9957 9954 9951 9949 9946 9943 9941 9940 9939 9938 9936 9935 9935 9934 9934 9933
10116 10107 10100 10092 10084 10076 10069 10061 10053 10046 10038 10031 10023 10015 10008 10002 9996 9989 9982 9976 9970 9964 9957 9952 9947 9943 9939 9935 9932 9929 9926 9923 9921 9920 9919 9918 9915 9915 9914 9913 9913 9912
10102 10094 10086 10078 10070 10062 10055 10047 10040 10032 10025 10017 10009 10002 9995 9989 9982 9975 9968 9962 9955 9949 9943 9937 9932 9927 9922 9918 9915 9911 9908 9905 9903 9902 9900 9898 9895 9894 9894 9892 9892 9891
10089 10081 10073 10065 10057 10049 10042 10034 10026 10019 10011 10004 9996 9988 9982 9976 9969 9962 9955 9948 9942 9935 9929 9923 9917 9912 9907 9903 9899 9895 9892 9889 9886 9884 9882 9879 9876 9875 9874 9873 9873 9871
10078 10070 10061 10053 10045 10037 10030 10022 10014 10006 9998 9990 9982 9974 9967 9961 9955 9948 9941 9935 9928 9921 9915 9909 9903 9897 9892 9888 9884 9880 9877 9873 9870 9867 9863 9861 9858 9856 9855 9855 9854 9853
10068 10059 10050 10042 10033 10025 10017 10009 10001 9993 9984 9976 9968 9960 9953 9946 9940 9934 9927 9921 9915 9907 9901 9894 9888 9883 9878 9873 9869 9865 9861 9857 9853 9850 9846 9844 9841 9839 9838 9837 9837 9835
10057 10048 10039 10030 10022 10014 10005 9997 9988 9979 9971 9963 9955 9947 9939 9931 9925 9919 9913 9906 9900 9893 9886 9879 9874 9869 9864 9860 9856 9851 9846 9841 9838 9834 9830 9828 9825 9823 9822 9821 9820 9819
10045 10036 10027 10019 10010 10002 9993 9984 9976 9967 9959 9950 9942 9934 9925 9917 9911 9904 9897 9891 9884 9877 9871 9864 9859 9855 9850 9846 9842 9837 9832 9826 9822 9820 9816 9813 9810 9808 9807 9806 9805 9803
10033 10024 10016 10007 9998 9990 9981 9972 9963 9955 9947 9938 9930 9922 9913 9904 9897 9890 9883 9876 9869 9863 9856 9850 9845 9841 9837 9833 9828 9822 9817 9812 9808 9805 9802 9799 9796 9794 9792 9791 9790 9788
10021 10012 10004 9994 9986 9977 9969 9960 9951 9943 9934 9926 9918 9909 9900 9892 9884 9877 9870 9863 9856 9849 9843 9837 9832 9828 9824 9819 9813 9808 9803 9799 9795 9791 9788 9785 9783 9781 9779 9778 9776 9775
10009 10001 9991 9982 9974 9965 9956 9947 9938 9930 9921 9913 9905 9896 9887 9879 9871 9864 9858 9850 9843 9837 9831 9825 9820 9816 9812 9806 9800 9794 9790 9787 9782 9777 9774 9771 9769 9767 9766 9765 9764 9762
9998 9989 9980 9971 9962 9953 9944 9935 9926 9917 9909 9901 9892 9883 9874 9866 9859 9852 9845 9838 9831 9825 9819 9814 9809 9804 9799 9794 9787 9782 9778 9774 9769 9765 9761 9758 9756 9755 9753 9752 9751 9748
9987 9978 9968 9959 9951 9942 9932 9923 9914 9905 9897 9889 9881 9872 9863 9855 9847 9840 9833 9827 9819 9813 9807 9802 9798 9793 9788 9781 9775 9770 9767 9762 9757 9752 9749 9746 9744 9743 9741 9739 9737 9735
9976 9967 9957 9948 9939 9931 9921 9911 9902 9894 9886 9879 9870 9861 9852 9844 9836 9828 9822 9816 9808 9801 9795 9790 9786 9782 9776 9769 9763 9759 9756 9750 9744 9740 9737 9735 9733 9731 9729 9726 9724 9723
9965 9956 9946 9937 9928 9920 9910 9900 9891 9883 9875 9868 9858 9849 9840 9832 9824 9817 9810 9805 9798 9791 9785 9779 9775 9771 9765 9758 9752 9748 9745 9739 9731 9727 9725 9724 9722 9720 9717 9714 9712 9710
9954 9945 9935 9926 9917 9909 9899 9890 9881 9873 9865 9857 9847 9837 9829 9820 9813 9805 9799 9794 9788 9781 9774 9768 9764 9760 9754 9747 9741 9737 9735 9729 9720 9715 9713 9711 9710 9708 9704 9702 9700 9699
9943 9934 9925 9916 9907 9899 9889 9879 9871 9863 9855 9847 9837 9827 9818 9810 9802 9794 9788 9783 9777 9771 9764 9758 9754 9750 9744 9737 9731 9727 9724 9719 9710 9705 9702 9700 9697 9695 9693 9690 9689 9687
9933 9924 9914 9906 9897 9888 9879 9869 9860 9852 9844 9836 9826 9816 9807 9799 9791 9783 9777 9772 9767 9761 9754 9747 9743 9740 9734 9726 9721 9717 9713 9708 9700 9695 9693 9690 9687 9684 9682 9679 9678 9677
9922 9914 9904 9896 9887 9877 9868 9858 9849 9841 9833 9825 9815 9806 9797 9789 9781 9772 9766 9760 9756 9751 9745 9737 9733 9730 9724 9716 9711 9708 9704 9697 9690 9686 9683 9681 9677 9674 9671 9669 9668 9667
9912 9904 9894 9885 9877 9867 9857 9848 9839 9831 9823 9815 9805 9796 9786 9778 9770 9761 9754 9749 9745 9740 9735 9727 9722 9720 9715 9707 9701 9699 9694 9687 9680 9676 9673 9671 9667 9663 9661 9660 9658 9657
9902 9893 9885 9875 9866 9857 9847 9838 9829 9821 9813 9804 9796 9786 9776 9767 9759 9751 9743 9738 9734 9729 9724 9717 9712 9710 9706 9698 9692 9689 9685 9678 9671 9666 9663 9660 9656 9652 9651 9650 9649 9647
9891 9883 9874 9865 9856 9847 9837 9828 9819 9811 9803 9794 9786 9777 9766 9756 9749 9741 9732 9727 9724 9719 9713 9708 9701 9698 9696 9690 9683 9680 9676 9669 9662 9657 9653 9650 9646 9642 9641 9640 9638 9636
9881 9872 9864 9855 9846 9837 9827 9818 9810 9801 9793 9784 9776 9767 9757 9747 9739 9732 9723 9716 9714 9709 9704 9698 9692 9687 9685 9681 9675 9670 9667 9661 9654 9649 9645 9641 9636 9633 9631 9630 9629 9626
9870 9862 9854 9845 9836 9827 9817 9808 9800 9792 9783 9775 9767 9758 9748 9738 9730 9723 9714 9706 9704 9700 9694 9690 9684 9677 9674 9672 9666 9661 9658 9654 9647 9641 9637 9632 9626 9623 9622 9620 9618 9616